Location: Be?chatów
(51.3665°N, 19.3745°E)
Time: 21:57:33
(UTC+00:00)

Cosmos 1241 Rocket - Pass Details

Date: 19 May 2025
Orbit: 930 x 1016 km, 65.8° (Epoch: 16 June)

Event Time Altitude Azimuth Distance (km) Brightness Sun altitude
Rises 22:41:24 0° 319° (NW) 3,747 8.3 -18.7°
Reaches altitude 10° 22:44:01 10° 320° (NW) 2,785 7.6 -18.6°
Maximum altitude 22:50:35 87° 232° (SW) 997 4.5 -18.6°
Enters shadow 22:55:03 21° 144° (SE) 2,033 5.7 -18.6°
